Regional Weather Roundup
Issued by NWS Kansas City/Pleasant Hill, MO

Home | Current Version | Previous Version | Graphics & Text | Print | Product List | Glossary Off
Versions: 1 2 3 4 5 6 7 8 9 10 11 12 13 14 15 16 17 18 19 20 21 22 23 24 25 26 27

000
ASUS43 KEAX 291710
RWREAX

WEATHER ROUNDUP FOR EASTERN KANSAS AND NORTHWEST MISSOURI
NATIONAL WEATHER SERVICE KANSAS CITY/PLEASANT HILL MO
1200 PM CDT FRI JUL 29 2016

KSZ040-057-103>105-MOZ028-029-037-043-291800-
...KANSAS CITY METROPOLITAN AREA...

CITY           SKY/WX    TMP DP  RH WIND       PRES   REMARKS
K.C. INTL      PTSUNNY   81  63  54 N10       30.02F
K.C. DOWNTOWN  PTSUNNY   82  63  52 VRB6      30.01S
LEES SUMMIT    CLOUDY    78  65  63 VRB6      30.03S
OLATHE - IXD   PTSUNNY   81  67  62 VRB6      30.04S
OLATHE - OJC   PTSUNNY   80  64  58 VRB3      30.03S
LAWRENCE       MOSUNNY   81  66  60 N3        30.02F

$$

MOZ001>008-011>017-020>025-030>033-038>040-044>046-053-054-291800-
...NORTHERN AND CENTRAL MISSOURI...

CITY           SKY/WX    TMP DP  RH WIND       PRES   REMARKS
ST. JOSEPH     MOSUNNY   79  65  62 NE7       30.03S
MOSBY          PTSUNNY   79  63  57 NE5       30.02S
WHITEMAN AFB   PTSUNNY   79  67  67 VRB6      30.00S
CLINTON        CLOUDY    81  72  74 CALM      30.01S
SEDALIA        CLOUDY    81  71  71 N6        30.02S
WARSAW         NOT AVBL
CHILLICOTHE      N/A     80  66  62 VRB5      30.02F
KIRKSVILLE     CLOUDY    77  64  64 NW9       30.01S

$$

MOZ041-047>049-056>058-063>065-088>090-097-291800-
...EASTERN AND SOUTHERN MISSOURI...

CITY           SKY/WX    TMP DP  RH WIND       PRES   REMARKS
ST. LOUIS INTL CLOUDY    84  69  60 W6        29.97R
SPIRIT OF STL  CLOUDY    81  70  69 W5        29.96S
COLUMBIA       PTSUNNY   80  68  66 CALM      30.00S
JEFFERSON CITY CLOUDY    76  71  85 NW3       29.98F
ROLLA          PTSUNNY   81  70  69 SW6       29.98F
OSAGE BEACH    PTSUNNY   80  73  79 VRB3      29.99S
SPRINGFIELD    CLOUDY    81  72  74 W8        30.00R
BRANSON        PTSUNNY   86  73  66 N6        30.01F HX  93
JOPLIN         MOSUNNY   82  72  71 N3        30.02S
WEST PLAINS    MOSUNNY   84  69  60 W6        30.01F

$$

IAZ060-094-KSZ022-034>040-054-083-096-NEZ052-066-093-291800-
...KANSAS...SOUTHEAST NEBRASKA AND IOWA...

CITY           SKY/WX    TMP DP  RH WIND       PRES   REMARKS
TOPEKA         CLOUDY    81  66  60 E3        30.03S
MANHATTAN      MOSUNNY   78  69  73 E6        30.04S
EMPORIA        MOSUNNY   80  66  62 VRB5      30.02F
CHANUTE        CLOUDY    80  70  71 VRB6      30.01S
WICHITA        PTSUNNY   80  66  62 NW14      30.04S
OMAHA          CLOUDY    78  62  57 N8        30.05F
LINCOLN        LGT RAIN  73  66  78 N8        30.08S
FALLS CITY     MOSUNNY   78  66  66 VRB5      30.03F
LAMONI         CLOUDY    74  64  71 VRB6      30.03S
DES MOINES     CLOUDY    70  63  78 NW7       30.01R

$$





USA.gov is the U.S. government's official web portal to all federal, state and local government web resources and services.